Regional Weather Roundup
Issued by NWS

Home | Current Version | Previous Version | Graphics & Text | Print | Product List | Glossary On
Versions: 1 2 3 4 5 6 7 8 9 10 11 12 13 14 15 16 17 18 19 20 21 22 23 24 25 26 27 28 29 30 31 32 33 34 35 36 37 38 39 40 41 42 43 44 45 46 47 48 49 50
000
ASUS43 KDMX 280607
RWRIA

WEATHER ROUNDUP FOR IOWA
NATIONAL WEATHER SERVICE DES MOINES IA
1200 AM CST SAT FEB 28 2015

NOTE: "FAIR" INDICATES FEW OR NO CLOUDS BELOW 12,000 FEET WITH NO
SIGNIFICANT WEATHER AND/OR OBSTRUCTIONS TO VISIBILITY.

* - THESE STATIONS ARE NOT NWS STATIONS...THUS NOT UNDER NWS
QUALITY CONTROL.  THEY ALSO DO NOT REPORT WEATHER SUCH
AS PRECIPITATION OR FOG.

IAZ001>003-012>014-020>022-031>034-043>046-280700-
   NORTHWEST IOWA

CITY           SKY/WX    TMP DP  RH WIND       PRES   REMARKS
CARROLL *      CLEAR     -2  -8  78 SE3       30.53F
CHEROKEE *     CLEAR     -5  -9  83 CALM      30.49F
DENISON *      CLEAR      1  -4  78 SE5       30.49F WCI  -8
LE MARS *      CLEAR      3  -2  78 S5        30.49S WCI  -6
ORANGE CITY *  CLEAR      3  -2  78 SE7       30.45F WCI  -9
SHELDON *      CLEAR     -2  -8  78 S8        30.45F WCI -17
SIOUX CITY     CLEAR      2  -3  80 SE7       30.49F WCI -11
6HR MIN TEMP:   2; 6HR MAX TEMP:  16;

SPENCER        PTCLDY    -5 -10  79 SE7       30.48F WCI -19
6HR MIN TEMP:  -7; 6HR MAX TEMP:   5;

STORM LAKE *   CLEAR     -2  -8  78 SE8       30.49F WCI -17
$$

IAZ055>058-069>071-079>083-090>094-280700-
   SOUTHWEST IOWA

CITY           SKY/WX    TMP DP  RH WIND       PRES   REMARKS
ATLANTIC *     MOCLDY     0  -6  78 NE3       30.52F
AUDUBON *      CLEAR     -6 -11  77 CALM      30.52S
CLARINDA *     PTCLDY     9   1  72 CALM      30.56F
COUNCIL BLFS * PTCLDY     9   1  72 SE6       30.49S WCI  -1
CRESTON *      CLEAR      3  -2  78 SE6       30.53F WCI  -8
HARLAN  *      CLEAR      3   0  85 CALM      30.55F
LAMONI         PTCLDY     6  -2  69 SE5       30.55F WCI  -3
6HR MIN TEMP:   6; 6HR MAX TEMP:  13;

RED OAK *      CLEAR      9   1  72 SE3       30.53F
SHENANDOAH *   CLEAR      7   0  72 SE6       30.54F WCI  -3
$$

IAZ047>049-059>061-072>074-084-280700-
   CENTRAL IOWA

CITY           SKY/WX    TMP DP  RH WIND       PRES   REMARKS
AMES           PTCLDY    -3  -9  75 CALM      30.58F
6HR MIN TEMP:  -5; 6HR MAX TEMP:   9;

ANKENY *       CLEAR      0  -6  78 SE6       30.60S WCI -12
CHARITON *     CLEAR      1  -4  78 SE6       30.57F WCI -10
DES MOINES     CLEAR      6  -3  66 SE8       30.58F WCI  -7
6HR MIN TEMP:   6; 6HR MAX TEMP:  13;

GRINNELL*      MOCLDY    -5  -9  84 SE5       30.59F WCI -16
KNOXVILLE *    CLEAR      1  -6  71 SE6       30.58F WCI -10
MARSHALLTOWN   MOCLDY   -10 -13  86 E6        30.59S WCI -23
6HR MIN TEMP: -11; 6HR MAX TEMP:   6;

PELLA *        PTCLDY    -2  -6  86 SE6       30.61F WCI -14
PERRY *          N/A      0  -4  85 E6        30.56S WCI -12
$$

IAZ004>006-015-016-023>025-035-036-280700-
   NORTH CENTRAL IOWA

CITY           SKY/WX    TMP DP  RH WIND       PRES   REMARKS
ALGONA *       CLEAR     -2  -6  84 S6        30.53S WCI -14
CLARION *      CLEAR     -6 -11  77 SE12      30.55F WCI -24
ESTHERVILLE    PTCLDY    -6  -9  86 S8        30.49F WCI -21
6HR MIN TEMP:  -7; 6HR MAX TEMP:   7;

FORT DODGE *   PTCLDY    -2 -11  65 CALM      30.55S
MASON CITY     MOCLDY   -10 -14  82 S5        30.56S WCI -22
6HR MIN TEMP: -11; 6HR MAX TEMP:   2;

FOREST CITY *  CLEAR    -13 -18  77 SE5       30.53F WCI -25
IOWA FALLS *     N/A     -9 -15  77 SE7       30.58S WCI -24
$$

IAZ007>011-017>019-026>030-037>042-050>054-066-280700-
   NORTHEAST IOWA

CITY           SKY/WX    TMP DP  RH WIND       PRES   REMARKS
CEDAR RAPIDS   PTCLDY    -7 -11  83 CALM      30.62S
6HR MIN TEMP:  -9; 6HR MAX TEMP:   4;

CHARLES CITY * CLEAR     -6 -11  77 S8        30.58S WCI -21
CLINTON *      MOCLDY   -11 -11 100 CALM      30.67S
DECORAH *      CLEAR     -6 -11  77 CALM      30.57S
DUBUQUE          N/A     -9 -14  78 CALM      30.60F
6HR MIN TEMP: -11; 6HR MAX TEMP:   2;

MONTICELLO *   CLEAR    -22 -29  69 CALM      30.64S
OELWEIN *      CLEAR     -9 -15  77 S7        30.60S WCI -24
WATERLOO       MOCLDY   -15 -17  91 SE5       30.61S WCI -27
6HR MIN TEMP: -21; 6HR MAX TEMP:   3;

$$

IAZ064-065-067-068-078-280700-
   EAST CENTRAL IOWA

CITY           SKY/WX    TMP DP  RH WIND       PRES   REMARKS
DAVENPORT      MOCLDY    -6 -12  75 CALM      30.65F
6HR MIN TEMP:  -7; 6HR MAX TEMP:   3;

IOWA CITY      PTCLDY    -8 -11  86 CALM      30.66F
6HR MIN TEMP: -10; 6HR MAX TEMP:   7;

MT. PLEASANT * PTCLDY    -6 -10  80 E5        30.64S WCI -17
MUSCATINE *    CLEAR    -11 -17  77 CALM      30.68S
QUAD CITIES    MOCLDY   -14 -19  79 CALM      30.67S
6HR MIN TEMP: -14; 6HR MAX TEMP:   7;

$$

IAZ062-063-075>077-085>089-095>099-280700-
   SOUTHEAST IOWA

CITY           SKY/WX    TMP DP  RH WIND       PRES   REMARKS
BURLINGTON     PTCLDY     1  -5  75 E3        30.64F
6HR MIN TEMP:  -1; 6HR MAX TEMP:   8;

FAIRFIELD *    CLEAR     -6 -13  71 SE5       30.63S WCI -17
FORT MADISON * PTCLDY     0  -6  78 CALM      30.64F
KEOKUK *       CLOUDY     3  -4  72 E5        30.64S WCI  -6
OSKALOOSA *      N/A     -2  -8  77 SE7       30.62S WCI -16
CENTERVILLE *  MOCLDY     5   0  78 E6        30.59F WCI  -6
OTTUMWA        PTCLDY     1  -7  68 E7        30.61S WCI -12
6HR MIN TEMP:  -3; 6HR MAX TEMP:   9;

WASHINGTON *   CLEAR     -8  -9  92 SE5       30.64S WCI -19
$$

ABBREVIATIONS USED IN REMARKS
   TC - TEMPERATURES IN CELSIUS
  WCI - WIND CHILL INDEX
   HX - HEAT INDEX
  VSB - VISIBILITY
$$



USA.gov is the U.S. government's official web portal to all federal, state and local government web resources and services.